Siren, WI

4:11 PM CST on February 24, 2017 (GMT -0600)
Burnett County

Weather History for KRZN - August, 2013

Change the Weather History Date:

Friday, August 2, 2013

  Actual Average Record
Temperature  
Mean Temperature 62 °F -  
Max Temperature 76 °F - - ()
Min Temperature 50 °F - - ()
Degree Days  
Heating Degree Days 2    
Growing Degree Days 12 (Base 50)    
Moisture  
Dew Point 50 °F    
Average Humidity 64    
Maximum Humidity 98    
Minimum Humidity 30    
Precipitation  
Precipitation 0.00 in - - ()
Sea Level Pressure  
Sea Level Pressure 29.93 in    
Wind  
Wind Speed 3 mph (NNW)    
Max Wind Speed 15 mph    
Max Gust Speed 18 mph    
Visibility 10 miles    
Events      
Averages and records for this station are not official NWS values.
T = Trace of Precipitation, MM = Missing Value Source: NWS Daily Summary

Daily Weather History Graph

Daily Weather History Graph

Search for Another Location

Airport or City:

Trip Planner

Search our weather history database for the weather conditions in past years. The results will help you decide how hot, cold, wet, or windy it might be!

Date:

Astronomy

Aug. 02, 2013 Rise Set
Actual Time 5:53 AM CDT 8:36 PM CDT
Civil Twilight 5:19 AM CDT 9:10 PM CDT
Nautical Twilight 4:36 AM CDT 9:53 PM CDT
Astronomical Twilight 3:45 AM CDT 10:43 PM CDT
Moon 2:13 AM CDT (8/2) 5:37 PM CDT (8/2)
Length of Visible Light 15h 51m
Length of Day
14h 42m
Waning Crescent, 15% of the Moon is Illuminated
Aug 2
Waning Crescent
Aug 6
New
Aug 14
First Quarter
Aug 20
Full
Aug 28
Last Quarter

Hourly Weather History & Observations

Time (CDT) Temp. Dew Point Humidity Pressure Visibility Wind Dir Wind Speed Gust Speed Precip Events Conditions
12:15 AM 57.6 °F 55.0 °F 91% 29.87 in 10.0 mi Calm Calm - N/A   Clear
12:35 AM 57.9 °F 54.3 °F 88% 29.86 in 10.0 mi Calm Calm - N/A   Clear
12:55 AM 57.2 °F 55.9 °F 96% 29.86 in 10.0 mi Calm Calm - N/A   Clear
1:15 AM 56.3 °F 52.9 °F 88% 29.86 in 10.0 mi Calm Calm - N/A   Clear
1:35 AM 56.1 °F 52.5 °F 88% 29.85 in 10.0 mi Calm Calm - N/A   Scattered Clouds
1:55 AM 55.4 °F 52.3 °F 89% 29.85 in 10.0 mi Calm Calm - N/A   Scattered Clouds
2:15 AM 55.0 °F 52.0 °F 89% 29.85 in 10.0 mi Calm Calm - N/A   Clear
2:35 AM 54.1 °F 52.3 °F 94% 29.86 in 10.0 mi Calm Calm - N/A   Clear
2:55 AM 57.0 °F 53.8 °F 89% 29.86 in 10.0 mi Calm Calm - N/A   Clear
3:15 AM 55.4 °F 53.4 °F 93% 29.86 in 10.0 mi Calm Calm - N/A   Clear
3:35 AM 56.1 °F 53.1 °F 89% 29.86 in 10.0 mi Calm Calm - N/A   Clear
3:55 AM 53.8 °F 52.3 °F 95% 29.87 in 10.0 mi Calm Calm - N/A   Clear
4:15 AM 54.9 °F 52.9 °F 93% 29.87 in 10.0 mi Calm Calm - N/A   Clear
4:35 AM 52.7 °F 50.7 °F 93% 29.87 in 10.0 mi Calm Calm - N/A   Clear
4:55 AM 53.8 °F 52.0 °F 94% 29.88 in 10.0 mi Calm Calm - N/A   Clear
5:15 AM 53.2 °F 51.4 °F 94% 29.88 in 10.0 mi Calm Calm - N/A   Clear
5:35 AM 50.4 °F 49.1 °F 95% 29.88 in 10.0 mi Calm Calm - N/A   Clear
5:55 AM 50.5 °F 50.0 °F 98% 29.89 in 10.0 mi West 3.5 mph - N/A   Clear
6:15 AM 50.0 °F 49.1 °F 97% 29.90 in 10.0 mi WSW 4.6 mph - N/A   Clear
6:35 AM 51.4 °F 50.9 °F 98% 29.90 in 10.0 mi WNW 3.5 mph - N/A   Clear
6:55 AM 54.1 °F 53.4 °F 97% 29.91 in 10.0 mi Calm Calm - N/A   Clear
7:15 AM 55.8 °F 53.8 °F 93% 29.91 in 10.0 mi NW 4.6 mph - N/A   Clear
7:35 AM 57.2 °F 54.5 °F 91% 29.91 in 10.0 mi NNW 4.6 mph - N/A   Clear
7:55 AM 58.5 °F 54.1 °F 86% 29.91 in 10.0 mi North 6.9 mph - N/A   Clear
8:15 AM 60.4 °F 54.5 °F 81% 29.91 in 10.0 mi North 4.6 mph - N/A   Clear
8:35 AM 63.0 °F 55.0 °F 75% 29.91 in 10.0 mi North 8.1 mph - N/A   Clear
8:55 AM 64.9 °F 55.0 °F 70% 29.92 in 10.0 mi North 5.8 mph - N/A   Clear
9:15 AM 66.0 °F 54.5 °F 66% 29.93 in 10.0 mi North 8.1 mph - N/A   Clear
9:35 AM 67.5 °F 53.6 °F 61% 29.93 in 10.0 mi North 10.4 mph - N/A   Clear
9:55 AM 68.5 °F 53.1 °F 58% 29.93 in 10.0 mi North 10.4 mph - N/A   Clear
10:15 AM 69.1 °F 53.1 °F 57% 29.93 in 10.0 mi North 6.9 mph - N/A   Clear
10:35 AM 70.9 °F 51.8 °F 51% 29.93 in 10.0 mi NNW 10.4 mph - N/A   Clear
10:55 AM 71.2 °F 50.0 °F 47% 29.93 in 10.0 mi NNW 8.1 mph - N/A   Clear
11:15 AM 72.3 °F 50.0 °F 45% 29.93 in 10.0 mi North 12.7 mph 18.4 mph N/A   Scattered Clouds
11:35 AM 72.1 °F 47.8 °F 42% 29.94 in 10.0 mi North 10.4 mph - N/A   Clear
11:55 AM 72.9 °F 48.6 °F 42% 29.94 in 10.0 mi North 5.8 mph - N/A   Scattered Clouds
12:15 PM 72.9 °F 47.1 °F 40% 29.94 in 10.0 mi NNW 5.8 mph - N/A   Scattered Clouds
12:35 PM 73.4 °F 45.5 °F 37% 29.94 in 10.0 mi NNW 12.7 mph 18.4 mph N/A   Mostly Cloudy
12:55 PM 73.9 °F 45.3 °F 36% 29.94 in 10.0 mi North 9.2 mph 18.4 mph N/A   Scattered Clouds
1:15 PM 75.0 °F 41.7 °F 30% 29.94 in 10.0 mi NNW 12.7 mph 16.1 mph N/A   Mostly Cloudy
1:35 PM 75.2 °F 44.2 °F 33% 29.94 in 10.0 mi NNW 12.7 mph - N/A   Mostly Cloudy
1:55 PM 75.7 °F 43.9 °F 32% 29.94 in 10.0 mi NW 9.2 mph 17.3 mph N/A   Scattered Clouds
2:15 PM 74.8 °F 44.1 °F 33% 29.94 in 10.0 mi North 11.5 mph 17.3 mph N/A   Scattered Clouds
2:35 PM 75.7 °F 44.8 °F 33% 29.94 in 10.0 mi NNE 12.7 mph 16.1 mph N/A   Mostly Cloudy
2:55 PM 75.9 °F 45.3 °F 34% 29.95 in 10.0 mi NW 15.0 mph - N/A   Mostly Cloudy
3:15 PM 75.9 °F 44.1 °F 32% 29.94 in 10.0 mi NNW 12.7 mph 16.1 mph N/A   Scattered Clouds
3:35 PM 75.6 °F 45.1 °F 34% 29.94 in 10.0 mi NW 11.5 mph - N/A   Scattered Clouds
3:55 PM 75.2 °F 45.1 °F 34% 29.94 in 10.0 mi NNW 9.2 mph - N/A   Scattered Clouds
4:15 PM 75.2 °F 45.3 °F 34% 29.94 in 10.0 mi NNW 5.8 mph - N/A   Scattered Clouds
4:35 PM 74.7 °F 45.3 °F 35% 29.95 in 10.0 mi NNW 6.9 mph - N/A   Clear
4:55 PM 73.8 °F 45.9 °F 37% 29.95 in 10.0 mi North 10.4 mph - N/A   Scattered Clouds
5:15 PM 75.2 °F 44.8 °F 34% 29.95 in 10.0 mi NNW 6.9 mph - N/A   Clear
5:35 PM 74.7 °F 45.9 °F 36% 29.95 in 10.0 mi North 9.2 mph - N/A   Clear
5:55 PM 73.6 °F 45.9 °F 37% 29.96 in 10.0 mi North 9.2 mph - N/A   Mostly Cloudy
6:15 PM 73.6 °F 45.7 °F 37% 29.96 in 10.0 mi North 9.2 mph - N/A   Scattered Clouds
6:35 PM 72.0 °F 46.9 °F 41% 29.96 in 10.0 mi North 5.8 mph - N/A   Clear
6:55 PM 73.0 °F 48.0 °F 41% 29.97 in 10.0 mi North 4.6 mph - N/A   Scattered Clouds
7:15 PM 72.3 °F 47.5 °F 41% 29.97 in 10.0 mi North 5.8 mph - N/A   Clear
7:35 PM 70.7 °F 48.4 °F 45% 29.98 in 10.0 mi NNW 5.8 mph - N/A   Clear
7:55 PM 69.8 °F 49.1 °F 48% 29.98 in 10.0 mi NW 4.6 mph - N/A   Clear
8:15 PM 68.2 °F 50.2 °F 53% 29.99 in 10.0 mi NW 3.5 mph - N/A   Scattered Clouds
8:35 PM 66.0 °F 50.5 °F 57% 30.00 in 10.0 mi Calm Calm - N/A   Scattered Clouds
8:55 PM 63.9 °F 50.5 °F 62% 30.00 in 10.0 mi Calm Calm - N/A   Clear
9:15 PM 61.3 °F 50.9 °F 69% 30.01 in 10.0 mi Calm Calm - N/A   Clear
9:35 PM 59.7 °F 50.7 °F 72% 30.02 in 10.0 mi Calm Calm - N/A   Scattered Clouds
9:55 PM 59.5 °F 50.9 °F 73% 30.02 in 10.0 mi Calm Calm - N/A   Scattered Clouds
10:15 PM 57.7 °F 50.4 °F 76% 30.03 in 10.0 mi Calm Calm - N/A   Scattered Clouds
10:35 PM 57.9 °F 50.4 °F 76% 30.03 in 10.0 mi WNW 3.5 mph - N/A   Scattered Clouds
10:55 PM 58.1 °F 50.9 °F 77% 30.04 in 10.0 mi NW 3.5 mph - N/A   Scattered Clouds
11:15 PM 58.1 °F 50.9 °F 77% 30.04 in 10.0 mi Calm Calm - N/A   Scattered Clouds
11:35 PM 57.2 °F 50.0 °F 77% 30.05 in 10.0 mi Calm Calm - N/A   Clear
11:55 PM 56.7 °F 49.8 °F 78% 30.05 in 10.0 mi Calm Calm - N/A   Scattered Clouds